Theta_e
341 340 344 343 323 323 313 316 321 321 321 327 331 328 324 323 321 314 341 344 347 348 353 355 361 358 358 358 360 361 361 360 360 359 358 358 361 362 361 361 360 360 359 360 359 358 361 362 360
341 342 344 332 315 309 311 320 320 322 324 329 329 328 325 323 332 333 338 345 347 349 352 356 360 360 359 361 361 361 361 360 361 361 361 362 362 362 360 359 359 359 359 361 361 361 360 360 359
346 347 332 321 315 310 312 320 322 326 329 327 326 330 328 326 335 337 344 347 349 348 351 355 361 361 360 362 361 362 362 362 360 359 360 361 362 361 360 360 360 360 360 361 361 359 357 359 359
344 336 330 314 311 317 319 324 323 324 328 330 330 325 334 341 338 338 343 345 348 351 353 361 362 361 361 361 362 362 362 362 358 360 359 360 362 360 361 361 360 359 359 358 358 358 358 357 359
345 335 316 313 312 318 325 329 330 326 326 328 329 325 330 340 343 341 336 340 346 349 354 356 363 362 362 361 362 362 363 362 360 361 362 360 360 358 360 360 360 360 359 360 360 360 360 360 360
331 330 314 308 312 319 326 327 329 327 328 329 327 326 331 341 340 340 339 342 349 350 354 354 361 362 362 362 362 362 362 362 362 361 363 362 361 360 363 362 362 360 360 363 362 361 360 359 358
324 320 315 316 314 320 326 330 325 327 326 326 330 323 333 337 341 343 345 345 348 350 352 354 355 358 362 361 362 361 362 363 362 362 364 364 360 361 364 363 362 361 360 358 358 359 358 357 357
330 323 319 319 315 314 328 326 333 331 326 333 333 323 325 336 343 342 342 342 345 349 351 352 353 353 354 354 362 362 362 360 359 360 360 362 361 361 361 365 365 362 362 362 360 357 356 356 356
336 319 314 317 317 319 332 326 331 336 331 331 332 331 338 342 340 338 337 335 343 347 350 349 350 350 350 354 355 361 362 362 361 360 361 361 352 353 356 360 365 361 360 361 362 359 357 355 356
328 319 321 327 326 322 328 330 331 329 328 329 330 333 341 342 338 335 332 333 341 341 340 346 345 349 350 353 352 351 353 352 351 352 354 353 351 350 354 358 359 357 358 359 361 361 359 357 351
330 317 325 328 326 325 330 330 333 327 324 327 326 328 335 337 336 336 338 340 340 337 343 340 343 342 347 347 351 351 348 350 349 345 346 346 348 347 349 346 347 353 358 354 359 359 357 353 351
325 328 329 331 332 331 327 332 328 328 328 333 331 330 331 332 333 333 338 341 340 337 340 337 337 340 339 340 348 348 345 347 348 342 344 347 344 341 338 341 345 346 352 352 353 354 355 354 353
325 323 328 332 329 330 331 329 328 328 333 335 332 332 331 331 334 335 335 342 341 335 339 339 338 337 341 344 346 341 336 344 345 337 341 341 345 339 337 344 344 339 340 343 352 352 351 350 347
324 326 326 327 328 329 327 327 331 329 334 333 332 328 332 332 334 335 334 334 339 335 338 339 336 340 342 334 341 341 337 345 347 340 340 345 345 338 337 345 344 341 341 345 346 346 343 340 341
327 323 325 327 329 325 326 321 324 330 333 330 331 328 331 331 333 335 334 333 333 342 345 345 346 349 348 345 348 345 341 345 346 343 345 349 340 339 340 342 341 343 344 347 348 349 345 341 341
325 324 316 325 328 327 324 312 323 329 329 329 329 331 331 333 334 336 337 334 335 337 343 346 347 347 345 344 346 347 341 346 344 348 345 349 346 342 346 339 340 348 351 353 346 347 345 342 342
318 312 312 314 329 323 319 312 322 328 327 326 328 329 331 332 335 338 337 337 337 340 339 340 345 345 345 347 346 347 346 348 346 344 351 348 342 349 344 346 342 344 346 350 348 346 346 340 341
307 311 311 313 323 322 317 315 319 321 324 325 327 330 328 330 331 334 335 339 340 342 342 343 346 344 343 349 350 349 341 347 345 339 340 351 350 342 341 340 338 344 342 343 348 347 346 351 347
315 312 310 315 325 320 317 315 315 319 323 323 327 328 330 331 332 334 338 339 343 341 343 345 344 346 345 346 344 342 343 345 344 340 346 352 349 347 341 337 338 342 339 341 345 348 353 351 340
316 314 313 314 320 319 315 314 318 319 320 323 326 328 330 334 331 335 337 338 340 342 343 345 346 347 345 349 350 346 347 348 350 348 348 352 347 345 340 333 333 337 339 341 337 347 352 349 332
315 309 309 308 313 321 317 313 316 322 322 323 326 330 332 331 332 333 339 339 340 342 344 346 348 348 347 349 348 347 347 345 341 349 348 348 350 346 341 337 338 337 336 335 334 348 349 347 348
302 318 315 312 313 305 318 301 314 318 319 322 324 326 330 331 333 334 337 337 340 343 344 347 347 349 349 350 347 344 342 339 341 347 348 348 350 340 342 341 339 333 332 340 339 344 351 344 345
304 316 315 314 308 307 312 303 312 317 314 318 322 324 329 331 332 333 335 338 340 344 346 349 348 348 346 349 347 346 341 344 347 352 352 349 348 342 342 341 343 338 340 335 341 334 351 339 344
311 307 309 306 303 295 303 303 308 311 315 317 322 324 329 330 332 333 337 339 339 343 346 349 348 346 348 349 347 345 344 342 347 345 344 349 348 349 348 346 345 345 337 337 334 343 352 352 353
303 296 290 291 296 295 304 303 306 318 320 319 321 323 325 328 330 331 334 336 335 340 344 346 348 345 349 348 345 346 347 345 344 342 340 347 348 347 349 351 350 346 337 336 343 351 351 351 350
300 296 290 289 292 297 306 300 309 322 325 327 326 324 327 329 328 330 334 335 337 341 343 347 345 344 348 349 347 348 348 343 342 345 342 349 350 350 352 353 352 353 355 352 351 349 350 353 353
300 298 305 298 299 298 301 308 316 321 319 324 324 327 325 328 330 332 336 337 341 343 340 346 346 347 346 349 348 348 347 342 339 346 351 347 354 356 355 355 353 350 348 352 352 351 350 352 352
304 306 296 298 292 292 299 304 304 312 313 317 319 323 325 327 329 332 334 338 341 342 343 346 349 348 346 348 349 349 349 348 349 349 347 349 347 346 350 353 350 350 350 351 352 350 351 350 351
300 299 300 301 298 294 295 301 313 311 314 316 320 324 326 328 330 333 335 336 337 340 342 344 349 347 346 347 348 346 349 350 349 349 350 348 351 348 345 348 350 352 352 353 352 350 351 350 348
306 301 299 294 295 300 299 298 316 315 318 321 322 324 325 329 330 332 335 335 336 337 340 343 350 349 348 349 348 346 348 349 348 350 351 349 351 352 351 352 351 351 351 351 350 348 349 350 350
Wind_Speed
0 7 4 5 5 1 2 3 6 16 13 6 8 14 8 7 5 10 4 12 16 11 10 11 14 15 17 17 15 15 15 15 14 15 14 14 13 13 13 12 11 11 13 14 12 11 12 12 12
4 9 2 4 3 3 2 14 21 14 2 16 23 24 25 19 15 12 7 12 16 13 8 9 13 14 13 15 15 14 14 15 14 14 14 15 14 13 14 13 13 13 13 15 15 12 11 11 10
3 3 4 3 3 1 3 11 20 19 3 13 15 19 14 17 14 11 7 16 12 13 9 10 15 15 15 15 15 14 15 15 15 15 15 16 16 15 15 14 15 14 14 13 13 13 10 10 9
1 5 5 2 1 5 7 9 15 11 16 18 18 16 15 19 12 13 13 14 18 14 9 13 15 15 15 14 14 14 15 14 15 15 15 17 16 16 15 15 14 15 14 13 13 10 9 8 8
5 4 3 2 4 6 7 16 17 13 17 20 21 24 19 14 18 18 16 11 18 13 9 9 15 16 15 14 13 14 15 15 15 14 15 16 16 15 14 13 14 13 12 12 10 10 9 9 6
6 3 2 3 9 8 6 10 16 12 21 22 18 22 11 24 18 13 15 10 18 14 11 9 14 15 14 13 13 14 15 15 16 15 15 14 14 12 14 12 13 13 12 11 10 9 7 6 3
1 3 2 3 12 11 6 12 7 6 19 14 16 22 13 23 20 20 11 13 16 16 11 7 7 12 14 13 12 13 14 15 15 14 14 14 13 12 11 11 11 11 12 11 10 8 5 3 5
6 4 3 2 6 5 12 3 10 5 16 20 20 9 14 14 21 17 12 8 15 16 13 8 7 7 7 5 12 13 12 12 12 12 12 12 12 11 11 8 9 11 11 12 11 9 8 7 9
4 2 2 7 7 5 8 9 3 7 17 11 9 13 29 25 21 15 7 4 8 11 10 9 6 6 6 6 6 10 12 12 12 11 11 8 4 6 8 6 9 10 9 9 10 9 7 8 9
5 3 7 5 5 5 13 5 9 9 12 17 18 15 26 20 21 18 15 9 13 10 8 7 5 3 6 6 5 4 5 4 3 3 5 4 3 4 5 4 3 3 3 6 6 8 8 7 4
7 6 7 12 18 17 8 8 7 4 12 17 20 15 29 22 14 17 17 16 23 16 11 10 7 4 4 2 3 1 3 3 4 6 6 8 5 5 3 3 3 4 5 3 3 4 4 5 4
12 26 0 15 9 5 6 10 7 12 6 18 18 13 8 12 15 14 21 17 15 15 12 7 9 2 7 4 4 0 4 6 2 0 6 5 4 4 3 2 2 3 3 5 5 4 5 6 9
12 15 8 10 10 10 9 2 6 12 14 8 15 11 9 5 12 13 14 19 21 17 14 10 6 3 7 10 5 3 6 5 5 4 4 7 2 2 3 3 1 3 2 4 7 7 5 8 9
8 14 4 6 12 5 3 3 3 12 5 9 11 8 11 4 10 7 12 17 19 19 16 14 12 12 16 13 10 3 5 4 5 5 4 4 3 3 2 3 3 5 3 7 5 4 3 2 5
16 11 3 9 5 4 4 5 5 9 13 11 11 11 12 7 10 13 13 13 10 22 20 14 9 7 12 17 8 4 6 5 5 7 8 6 1 9 7 4 6 8 5 8 2 1 2 3 2
8 5 5 6 2 3 2 5 5 6 11 9 12 11 7 7 5 6 14 11 9 11 15 13 11 8 5 4 6 5 6 3 6 8 12 8 7 5 5 3 5 9 5 6 3 2 0 4 5
4 7 6 3 4 4 3 1 11 4 8 9 12 8 8 2 5 1 4 12 15 13 9 9 9 8 7 6 3 5 5 7 5 4 12 12 9 8 6 2 4 5 3 5 3 3 3 3 3
7 9 6 6 7 4 5 5 7 9 1 1 7 6 4 9 13 9 10 12 14 12 8 8 10 8 8 5 3 2 4 5 4 3 3 11 7 4 3 5 5 3 5 6 8 4 2 1 1
12 10 6 7 6 3 9 5 14 11 3 4 2 3 1 9 10 7 7 15 13 8 8 8 10 7 6 3 3 1 2 1 1 5 4 3 11 10 5 2 3 5 3 4 10 3 4 2 2
14 12 5 4 6 6 6 7 10 7 4 6 6 5 0 4 5 3 5 14 13 11 9 10 8 8 5 3 2 2 3 2 2 3 3 4 12 6 3 5 3 5 5 8 9 8 4 3 3
16 10 7 8 4 9 8 3 7 7 12 16 14 8 9 7 4 3 0 3 12 11 11 13 9 8 6 5 2 4 3 3 2 2 3 3 12 6 5 5 3 6 5 5 5 8 9 4 4
7 20 18 15 10 7 18 3 11 12 11 12 11 13 13 11 7 7 3 11 13 10 9 12 11 9 6 7 3 4 3 2 2 3 2 3 9 6 7 6 3 7 4 4 3 4 10 5 4
5 8 4 8 10 5 17 4 5 10 12 18 19 14 14 12 10 9 6 3 6 13 11 10 8 8 8 7 6 5 4 1 1 2 6 2 2 11 5 3 3 5 4 3 6 3 7 3 3
7 6 3 2 1 3 5 7 4 10 20 12 15 15 15 13 12 10 6 5 4 9 12 11 11 8 8 8 7 7 4 4 0 4 3 4 3 3 11 7 6 7 4 3 4 1 4 3 3
4 6 5 6 6 3 8 9 8 18 11 15 15 17 13 13 12 10 7 5 7 13 14 12 11 8 8 9 8 8 6 6 5 6 5 4 2 2 4 7 5 4 5 5 6 4 3 4 2
5 8 6 4 3 3 6 4 4 10 13 9 13 16 14 13 12 15 14 14 5 11 14 13 13 11 8 9 8 7 8 5 4 6 1 4 4 6 7 5 5 6 6 6 3 1 2 3 1
8 3 1 6 3 1 2 7 2 19 20 7 9 13 16 15 16 18 16 15 10 7 7 13 14 12 11 9 8 7 7 7 7 5 5 3 5 3 8 8 7 6 5 5 4 1 3 2 1
4 2 6 5 3 1 8 4 5 10 14 17 14 10 16 16 17 15 13 16 16 12 11 8 13 14 14 9 9 7 7 7 5 4 1 7 7 4 5 5 6 6 5 4 4 1 1 5 2
2 2 4 8 3 5 3 6 7 8 8 14 16 10 13 14 13 14 16 20 21 13 12 9 15 14 11 10 8 8 7 7 6 5 5 6 7 6 5 5 5 4 6 5 3 3 3 4 5
7 0 1 5 5 3 3 6 9 10 11 4 11 14 8 7 13 7 15 18 16 16 16 12 15 14 14 12 11 8 9 8 7 7 7 6 7 6 7 6 4 5 3 4 6 6 4 4 4
Wind_Direction
207 237 211 33 359 55 273 154 116 106 73 89 144 77 100 95 114 128 131 135 139 132 138 131 129 123 123 117 118 121 124 121 123 124 125 125 124 122 120 116 111 105 120 116 116 116 113 103 105
243 260 208 122 50 328 354 77 65 59 109 84 90 87 80 79 85 113 125 161 128 133 127 135 129 123 118 115 116 121 118 117 120 118 122 123 121 121 117 116 115 116 130 126 117 111 113 115 106
278 329 71 77 91 247 276 90 101 57 6 101 112 105 104 114 124 131 154 127 132 126 126 144 132 131 128 123 124 121 116 118 120 123 122 118 116 118 119 121 113 113 110 114 118 124 120 104 107
127 3 23 75 218 268 290 94 112 141 108 97 101 87 98 123 127 152 148 113 112 118 131 135 136 128 123 123 124 119 117 118 121 119 122 123 124 122 124 122 119 120 119 115 117 123 124 115 109
19 360 67 46 310 272 340 139 124 96 103 94 109 103 115 108 125 132 135 131 117 118 128 132 130 132 129 133 126 122 124 125 127 131 129 126 128 124 123 125 124 126 124 120 126 127 126 118 116
12 22 44 160 250 246 248 70 90 99 105 104 102 109 113 129 120 131 138 143 123 132 125 132 132 132 134 133 130 133 134 133 134 138 131 130 123 122 115 131 129 128 125 127 124 121 109 108 104
16 119 231 219 239 257 68 43 54 64 115 117 126 119 134 121 134 145 143 126 129 124 121 131 131 136 134 135 141 140 139 141 139 136 133 129 131 130 124 129 130 127 126 130 133 127 137 150 211
154 172 326 36 356 343 182 167 83 275 125 129 130 143 127 128 128 125 118 103 129 129 136 142 146 133 132 153 145 145 142 136 133 131 131 129 135 139 138 143 153 146 148 145 143 154 176 207 234
125 88 208 160 143 239 237 98 167 71 84 153 113 133 128 136 124 116 88 76 135 131 134 139 151 160 142 134 164 148 145 145 142 140 145 143 167 155 161 181 168 157 151 154 163 169 198 219 243
155 154 192 169 105 47 307 2 184 140 153 115 126 121 122 136 138 135 147 155 90 63 60 64 38 174 150 149 155 172 164 118 126 137 167 183 194 166 166 151 172 166 173 161 171 183 213 238 266
177 178 179 116 123 129 291 1 311 117 129 150 145 147 139 147 152 146 155 150 131 164 118 170 176 215 127 69 178 173 148 93 70 44 26 55 42 4 44 28 18 12 316 285 236 230 230 242 262
83 32 54 138 147 160 68 324 3 50 55 138 137 144 151 134 151 148 155 129 141 124 127 222 139 213 46 349 345 280 63 87 56 148 110 92 46 2 10 27 15 338 327 302 238 224 226 255 251
104 110 310 125 125 98 146 274 9 65 93 292 134 147 147 141 128 110 114 140 140 139 157 189 163 191 68 49 271 85 115 132 134 333 64 82 45 56 328 353 37 310 299 269 246 241 232 228 239
169 119 250 151 93 57 77 347 15 7 1 197 132 136 99 107 124 122 122 135 147 150 167 181 185 158 131 175 225 193 120 79 107 58 54 62 205 149 251 283 346 304 311 267 226 209 212 32 43
125 92 243 116 74 69 330 356 83 26 31 151 204 144 155 135 160 143 142 149 149 159 170 176 153 165 159 183 172 153 140 161 137 137 111 95 289 10 327 336 1 297 272 308 181 202 136 96 64
83 80 128 331 329 315 337 200 288 43 48 0 214 100 105 70 345 129 142 155 134 122 139 146 145 143 162 113 133 173 164 150 126 150 125 189 178 212 358 354 289 295 287 269 210 152 32 201 153
152 121 114 264 244 145 80 250 269 62 42 17 9 95 91 61 336 187 285 138 137 132 147 150 138 149 146 94 64 107 103 113 117 100 144 166 169 204 109 225 257 259 328 340 287 257 181 214 157
182 129 118 169 166 168 150 216 264 265 180 334 345 336 146 172 223 219 175 128 137 142 144 140 131 138 122 108 84 58 98 112 96 131 143 143 163 95 149 211 195 238 41 16 335 48 41 102 134
90 112 135 31 140 121 201 173 217 225 189 217 243 102 155 262 222 180 137 135 126 126 115 116 124 131 121 113 103 44 128 155 166 112 199 131 139 147 146 56 332 68 16 10 348 318 10 337 110
121 118 113 6 308 186 149 205 232 229 252 269 226 153 95 344 336 259 142 151 144 146 132 133 131 137 142 133 134 143 113 125 147 133 179 149 112 152 143 159 126 63 26 10 2 335 341 15 57
146 145 203 166 210 239 171 198 215 239 215 213 224 178 154 213 226 37 2 95 138 144 146 145 150 151 147 109 142 78 75 45 31 115 147 165 125 160 123 124 205 87 66 24 359 350 2 7 3
140 179 184 166 164 205 190 241 217 216 227 239 232 188 178 188 204 118 103 232 161 163 152 154 156 154 140 124 117 139 163 141 227 156 141 166 121 156 168 172 113 68 85 43 32 17 3 34 17
254 198 187 187 188 167 203 270 243 191 223 219 229 215 180 179 197 144 181 176 255 165 166 157 154 160 143 142 152 153 157 116 317 153 146 140 143 156 188 158 111 137 118 121 126 58 232 149 217
318 356 315 349 201 354 354 72 259 180 222 221 213 210 172 177 194 154 207 148 259 200 160 164 163 171 156 154 162 163 143 149 133 113 118 158 189 178 174 208 157 127 169 279 94 264 250 278 357
356 12 334 350 36 243 356 28 278 228 220 206 188 195 190 173 181 168 196 208 217 199 172 170 169 171 170 159 170 170 173 133 161 163 186 158 139 224 209 170 182 156 191 209 216 229 308 335 323
257 180 170 205 161 260 21 204 329 297 226 203 186 177 177 177 185 184 186 215 193 204 180 174 173 174 174 160 175 175 167 155 168 189 197 147 177 204 189 176 173 185 186 203 201 201 299 323 35
278 340 173 115 359 76 156 317 95 22 17 19 116 160 189 192 192 194 195 196 173 188 162 178 176 181 172 176 165 173 172 167 195 213 211 149 94 129 140 165 177 207 204 170 134 229 295 326 265
254 233 29 11 114 339 1 303 282 7 358 341 321 186 190 206 200 201 171 166 176 183 192 174 180 178 181 167 174 172 178 182 190 210 187 121 143 140 154 194 186 186 190 182 176 196 36 11 298
300 136 88 98 95 160 161 215 154 128 53 283 281 274 203 213 227 192 175 174 179 182 184 182 184 175 187 177 169 170 178 190 180 190 215 151 149 172 184 196 156 174 221 216 179 205 236 248 258
118 266 17 135 215 239 189 271 172 190 136 205 284 299 254 234 224 220 172 177 176 173 184 187 183 180 179 187 178 186 183 179 186 191 198 189 165 169 184 174 175 206 224 198 182 207 236 242 251